Tracking 29892 objects as of 21-Nov-2024
HD Live streaming from Space Station
objects crossing your sky now

DELTA 1 DEB

Track DELTA 1 DEB now!
10-day predictions


NORAD ID: 12278
Int'l Code: 1978-026DW
Perigee: 734.1 km
Apogee: 795.2 km
Inclination: 99.1 °
Period: 100.0 minutes
Semi major axis: 7135 km
RCS: 0.032 m2 (small)
Launch date: March 5, 1978
Source: United States (US)
Launch site: AIR FORCE WESTERN TEST RANGE (AFWTR)

Note: This is SATELLITE DEBRIS
Your satellite tracking list
Your tracking list is empty




NASA's NSSDC Master Catalog

Two Line Element Set (TLE):
1 12278U 78026DW  24325.39072832  .00008350  00000-0  26194-2 0  9993
2 12278  99.1006 105.1061 0042837 209.3278 174.0267 14.40293653260389
Source of the keplerian elements: AFSPC